Location: Neuvy Saint Sepulchre
(46.5953°N, 1.8122°E)
Time: 23:22:11
(UTC+01:00)

ISS - Pass Details

Date: 29 November 2019
Orbit: 411 x 421 km, 51.6° (Epoch: 13 December)

Event Time Altitude Azimuth Distance (km) Brightness Sun altitude
Rises 19:10:59 0° 278° (W) 2,357 1.4 -20.5°
Reaches altitude 10° 19:13:12 10° 288° (WNW) 1,497 -0.1 -20.8°
Enters shadow 19:15:54 33° 338° (NNW) 736 -2.5 -21.3°
